User: anonymous   Login
Location: Unspecified
(0.0000°N, 0.0000°E)
Time: 06:11:59
(UTC+00:00)
Language:

Cosmos 1733 - Orbit

View from above orbital plane
View from above orbital plane
View from above satellite
View from above satellite

Ground track
Ground track

The orbit data is extracted from the following two-line orbital elements,

1 16611U 86018A   18197.56875542 +.00000438 +00000-0 +20610-4 0  9994
2 16611 082.4890 008.2657 0013858 058.1500 302.1080 15.16783490768492
Epoch (UTC): 16 July 2018 13:39:00
Eccentricity: 0.0013858
inclination: 82.4890°
perigee height: 506 km
apogee height: 525 km
right ascension of ascending node: 8.2657°
argument of perigee: 58.1500°
revolutions per day: 15.16783490
mean anomaly at epoch: 302.1080°
orbit number at epoch: 76849

The dashed part of the orbit path shows where the satellite is in the earth's shadow,  

DLR